Location: Appletree Creek
(38.7363°N, 122.6833°W)
Time: 18:15:26
(UTC+00:00)

ERS-2 - Pass Details

Date: 18 September 2020
Orbit: 492 x 499 km, 98.6° (Epoch: 19 October)

Event Time Altitude Azimuth Distance (km) Brightness Sun altitude
Rises 12:20:15 0° 165° (SSE) 2,574 5.7 -19.0°
Reaches altitude 10° 12:22:18 10° 165° (SSE) 1,696 4.8 -18.7°
Maximum altitude 12:25:57 88° 76° (ENE) 505 2.0 -18.0°
Drops below altitude 10° 12:29:38 10° 347° (NNW) 1,709 4.9 -17.3°
Sets 12:31:43 0° 348° (NNW) 2,597 5.8 -16.9°
